Regional Weather Roundup
Issued by NWS

Home | Current Version | Previous Version | Graphics & Text | Print | Product List | Glossary On
Versions: 1 2 3 4 5 6 7 8 9 10 11 12 13 14 15 16 17 18 19 20 21 22 23 24 25 26 27 28 29 30 31 32 33 34 35 36 37 38 39 40 41 42 43 44 45 46 47 48 49 50
549
ASUS44 KMEG 271110
RWRTN
TENNESSEE HOURLY STATE WEATHER ROUNDUP
NATIONAL WEATHER SERVICE MEMPHIS TN
600 AM CDT WED JUL 27 2016

TNZ002-004-019-021-049-052-054-088>092-271200-
WEST TENNESSEE

CITY           SKY/WX    TMP DP  RH WIND       PRES   REMARKS
MEMPHIS INTL   MOCLDY    80  72  76 SE7       29.96R
NWS MEMPHIS      N/A     76 N/A N/A MISG        N/A
JACKSON        CLEAR     73  73 100 CALM      29.98R
DYERSBURG      CLEAR     73  70  88 MISG      29.98R
UNION CITY     CLEAR     72  72 100 CALM      29.98R
PARIS          MOCLDY    72  72 100 CALM      29.99R
LEXINGTON      CLEAR     70  70 100 CALM      29.98S
$$

TNZ008-025-027-028-033-062-065-066-271200-
NORTH MIDDLE TENNESSEE

CITY           SKY/WX    TMP DP  RH WIND       PRES   REMARKS
NASHVILLE      PTCLDY    74  71  91 SE3       30.01R
CLARKSVILLE    CLOUDY    75  73  93 CALM      30.00R
SMYRNA         CLEAR     75  73  93 E6        30.02R
COOKEVILLE     CLEAR     72  72 100 N5        30.05R
CROSSVILLE     CLEAR     72  69  90 W3        30.10R
$$

TNZ061-075-076-078-094-096-097-271200-
SOUTH MIDDLE TENNESSEE

CITY           SKY/WX    TMP DP  RH WIND       PRES   REMARKS
FAYETTEVILLE   CLOUDY    77  72  83 S5        30.04R
TULLAHOMA      PTCLDY    73  72  94 CALM      30.06R
WINCHESTER     CLOUDY    73  72  94 CALM      30.05R
MCMINNVILLE    CLEAR     73  73 100 CALM      30.05R
COLUMBIA       CLEAR    N/A N/A N/A CALM      30.00R
SHELBYVILLE    CLEAR     73  73 100 SE3       30.04R
$$

TNZ017-018-042-046-047-271200-
NORTHEAST TENNESSEE

CITY           SKY/WX    TMP DP  RH WIND       PRES   REMARKS
TRI CITIES     CLOUDY    72  70  93 SW3       30.08R
ELIZABETHTON   CLOUDY    73  70  88 CALM      30.08R
$$

TNZ012-013-036-069-073-074-271200-
CENTRAL EAST TENNESSEE

CITY           SKY/WX    TMP DP  RH WIND       PRES   REMARKS
KNOXVILLE      PTCLDY    75  72  90 CALM      30.04R
OAK RIDGE      CLEAR     77  71  82 VRB3      30.06R
GATLINBURG     CLEAR     72  70  94 CALM      30.05R
MORRISTOWN     CLOUDY    75  72  88 CALM      30.06R
$$

TNZ083-085-099-271200-
SOUTHEAST TENNESSEE

CITY           SKY/WX    TMP DP  RH WIND       PRES   REMARKS
CHATTANOOGA    PTCLDY    76  72  87 CALM      30.04R
$$

SKY/WX REPORTED AS FAIR MEANS FEW OR NO CLOUDS BELOW
12 THOUSAND FEET.





USA.gov is the U.S. government's official web portal to all federal, state and local government web resources and services.